User: anonymous   Login
Location: Unspecified
(0.0000°N, 0.0000°E)
Time: 11:12:50
(UTC+00:00)
Language:

KAITUO 1B - Orbit

View from above orbital plane
View from above orbital plane
View from above satellite
View from above satellite

Ground track
Ground track

The orbit data is extracted from the following two-line orbital elements,

1 40912U 15049P   19343.98338166  .00000889  00000-0  44515-4 0  9997
2 40912  97.4500 349.1116 0013399 286.6599 129.2242 15.19931036233781
Epoch (UTC): 09 December 2019 23:36:04
Eccentricity: 0.0013399
inclination: 97.4500°
perigee height: 497 km
apogee height: 515 km
right ascension of ascending node: 349.1116°
argument of perigee: 286.6599°
revolutions per day: 15.19931036
mean anomaly at epoch: 129.2242°
orbit number at epoch: 23378

The dashed part of the orbit path shows where the satellite is in the earth's shadow,  

DLR